Terug naar catalogus

STARLINK-37411

ActiefCommunicatieVLEO
NORAD 69380·PAYLOAD·🇺🇸 United States

Gelanceerd Jun 4, 2026 vanaf Cape Canaveral Space Force Station

Loading…

Volgende Passages (komende 24 uur)

TLE

VersSource: CelesTrak SupGP

Epoch: Sep 15, 2026, 03:45 UTC

1 69380C 26123AD  26258.15673611  .00006516  00000+0  19254-3 0  2582
2 69380  53.1584 166.8684 0001275  84.4601  35.4089 15.34384449    16

Volg STARLINK-37411 in realtime met AllMySat

Download on the App Store